#timestamp,LO_Frequency,Hit,StdDev 
1634367615.2,286047002.7,N
1634367635.1,286047002.4,N
1634367636.0,286047002.4,N
1634367655.8,286046999.9,N
1634367675.6,286046998.2,N
1634367695.5,286046996.6,N
1634367715.3,286047001.1,N
1634367735.1,286046998.7,N
1634367755.9,286047000.8,N
1634367775.7,286046998.4,N
1634367795.5,286047001.1,N
1634367815.4,286046999.8,N
1634367835.2,286047002.8,N
1634367855.0,286047001.7,N
1634367855.9,286047001.7,N
1634367875.8,286046999.8,N
1634367895.6,286047002.4,N
1634367915.4,286047002.8,N
1634367935.3,286047001.6,N
1634367955.1,286047002.3,N
1634367975.8,286047001.7,N
1634367995.7,286047001.4,N
1634368015.5,286047003.6,N
1634368035.3,286047001.3,N
1634368055.2,286047001.8,N
1634368075.0,286047003.9,N
1634368075.9,286047003.9,N
1634368095.7,286047002.3,N
1634368115.6,286046999.8,N
1634368135.4,286047001.0,N
1634368155.2,286046999.8,N
1634368175.1,286047000.7,N
1634368176.0,286047000.7,N
1634368195.8,286047001.0,N
1634368215.6,286047000.6,N
1634368235.5,286047000.8,N
1634368255.3,286047002.6,N
1634368275.1,286047002.3,N
1634368295.9,286047002.3,N
1634368315.7,286047002.7,N
1634368335.5,286047002.5,N
1634368355.4,286047000.8,N
1634368375.2,286047000.9,N
1634368395.0,286047000.8,N
1634368395.9,286047000.8,N
1634368415.8,286046998.5,N
1634368435.6,286046998.7,N
1634368455.4,286046999.2,N
1634368475.3,286046999.4,N
1634368495.1,286046998.9,N
1634368515.8,286046998.4,N
1634368535.7,286046996.6,N
1634368555.5,286046999.5,N
1634368575.3,286046996.6,N
1634368595.2,286046999.4,N
1634368615.0,286046998.6,N
1634368615.9,286046998.6,N
1634368635.7,286046997.0,N
1634368655.6,286046999.5,N
1634368675.4,286046996.9,N
1634368695.2,286046999.5,N
1634368715.1,286046998.9,N
1634368716.0,286046998.9,N
1634368735.8,286046999.6,N
1634368755.6,286046996.9,N
1634368775.5,286046999.5,N
1634368795.3,286046999.6,N
1634368815.1,286046997.3,N
1634368835.9,286046996.7,N
1634368855.7,286046996.9,N
1634368875.5,286046996.7,N
1634368895.4,286046995.1,Y
1634368915.2,286046999.6,P
1634368935.0,286046997.2,P
1634368936.0,286046997.2,N
1634368955.8,286046997.3,N
1634368975.6,286046999.1,N
1634368995.5,286046999.0,N
1634369015.3,286046999.0,N
1634369035.1,286046998.3,N
1634369055.9,286046998.6,N
1634369075.7,286046999.2,N
1634369095.5,286046997.3,Y
1634369115.4,286046997.0,P
1634369135.2,286046996.6,P
1634369155.0,286046999.5,N
1634369155.9,286046999.5,N
1634369175.8,286046999.4,N
1634369195.6,286046999.4,N
1634369215.4,286046998.6,N
1634369235.2,286046996.8,N
1634369255.1,286046996.8,N
1634369256.0,286046996.8,N
1634369275.8,286046994.9,Y
1634369295.7,286046998.9,P
1634369315.5,286046999.3,N
1634369335.3,286046999.5,N
1634369355.2,286046999.5,N
1634369375.9,286046996.6,Y
1634369395.7,286046998.4,P
1634369415.6,286047000.9,N
1634369435.4,286046998.4,N
1634369455.2,286047000.8,N
1634369475.1,286047000.3,N
1634369476.0,286047000.3,N
1634369495.8,286046998.2,N
1634369515.6,286046998.5,N
1634369535.5,286046998.5,N
1634369555.3,286046998.6,N
1634369575.1,286046998.8,N
1634369595.9,286046999.0,N
1634369615.7,286046995.7,Y
1634369635.5,286046995.3,P
1634369655.4,286046995.8,N
1634369675.2,286046993.4,P
1634369695.0,286046993.6,Y
1634369695.9,286046993.6,P
1634369715.8,286046998.7,N
1634369735.6,286046998.5,N
1634369755.4,286046998.5,N
1634369775.3,286047000.0,N
1634369795.1,286047001.9,N
1634369796.0,286047001.9,N
1634369815.8,286047001.8,N
1634369835.7,286047002.3,N
1634369855.5,286047001.9,N
1634369875.3,286047002.3,N
1634369895.2,286047001.6,N
1634369915.9,286047001.6,N
1634369935.7,286047002.1,N
1634369955.6,286047000.3,N
1634369975.4,286047000.1,N
1634369995.2,286047000.4,N
1634370015.1,286047000.7,N
1634370016.0,286047000.7,N
1634370035.8,286046998.9,N
1634370055.6,286046999.0,N
1634370075.5,286046999.0,N
1634370095.3,286046996.9,N
1634370115.1,286046997.4,N
1634370135.9,286046997.3,N
1634370155.7,286046997.6,N
1634370175.5,286046997.8,N
1634370195.4,286046997.4,N
1634370215.2,286046997.8,N
1634370235.0,286046997.4,N
1634370235.9,286046997.4,N
1634370255.8,286046996.6,N
1634370275.6,286046996.6,N
1634370295.4,286046999.6,N
1634370315.3,286046999.2,N
1634370335.1,286046996.7,N
1634370336.0,286046996.7,N
1634370355.8,286046999.5,N
1634370375.7,286046997.1,N
1634370395.5,286046998.0,N
1634370415.3,286046997.9,N
1634370435.2,286046995.3,N
1634370455.9,286046997.4,N
1634370475.7,286046997.6,N
1634370495.6,286046995.3,Y
1634370515.4,286046996.7,P
1634370535.2,286046996.8,P
1634370555.1,286046996.7,P
1634370556.0,286046996.7,Y
1634370575.8,286047000.3,P
1634370595.6,286047000.1,N
1634370615.5,286047001.4,N
1634370635.3,286047004.4,N
1634370655.1,286047003.9,N
1634370675.9,286047001.9,N
1634370695.7,286047006.0,N
1634370715.5,286047005.5,N
1634370735.4,286047003.7,N
1634370755.2,286047004.3,N
1634370775.0,286047003.4,N
1634370775.9,286047003.4,N
1634370795.8,286047005.3,N
1634370815.6,286047003.0,N
1634370835.4,286047003.5,N
1634370855.3,286047001.5,N
1634370875.1,286047003.4,N
1634370895.8,286047003.6,N
1634370915.7,286047005.7,N
1634370935.5,286047004.7,N
1634370955.3,286047005.5,N
1634370975.2,286047007.3,Y
1634370995.0,286047004.1,P
1634370995.9,286047004.1,P
1634371015.7,286047004.1,P
1634371035.6,286047004.4,Y
1634371055.4,286047001.1,P
1634371075.2,286046998.3,N
1634371095.1,286047001.1,N
1634371096.0,286047001.1,N
1634371115.8,286046998.2,N
1634371135.6,286046998.5,N
1634371155.5,286047000.0,N
1634371175.3,286046999.7,N
1634371195.1,286046999.9,N
